DateTimeUTC,F1_A11,F1_S11,BsB_S11,BsG_S11,BsR_S11,BbsB_S11,BbsG_S11,BbsR_S11,BaB_A11,BaG_A11,BaR_A11,Tu_S11,T_S11,Uu_S11,U_S11,P_S11,T1_A11
2021-09-06T23:00:00Z,00000200,21000000,,,,,,,0000.08,0000.16,0000.04,18.3,25.3,,00.0,0663.6,31.0
2021-09-06T23:01:00Z,00000200,21000000,,,,,,,-000.13,-000.02,0000.16,18.3,25.3,,00.0,0663.6,31.0
2021-09-06T23:02:00Z,00000200,21000000,,,,,,,0000.10,0000.21,-000.08,18.3,25.4,,00.0,0663.6,31.0
2021-09-06T23:03:00Z,00000200,61000000,,,,,,,0000.17,0000.24,0000.34,18.4,25.4,,00.0,0663.6,31.0
2021-09-06T23:04:00Z,00000200,41000000,0003.13,0001.64,0001.12,0000.52,0000.17,0000.16,0000.35,0000.08,-000.21,18.7,25.3,00.0,00.0,0664.5,31.0
2021-09-06T23:05:00Z,00000200,01000000,0002.30,0001.54,0001.20,0000.32,0000.18,0000.22,0000.85,0000.54,0000.53,18.7,25.2,00.1,00.0,0664.6,31.0
2021-09-06T23:06:00Z,00000200,01000000,0002.26,0001.27,0000.85,0000.49,0000.22,0000.10,0000.33,0000.23,0000.16,18.6,25.1,00.0,00.0,0664.6,31.0
2021-09-06T23:07:00Z,00000200,01000000,0002.16,0001.59,0000.90,0000.46,0000.29,0000.52,0000.24,0000.93,0000.58,18.6,25.1,00.0,00.0,0664.6,31.0
2021-09-06T23:08:00Z,00000200,01000000,0002.32,0001.45,0001.25,0000.71,0000.30,0000.36,0000.32,0000.26,0000.31,18.5,25.1,00.1,00.1,0664.6,31.0
2021-09-06T23:09:00Z,00000200,01000000,0001.98,0001.25,0000.79,0000.38,0000.24,0000.30,0001.10,0000.31,0000.45,18.5,25.0,00.1,00.0,0664.6,31.0
2021-09-06T23:10:00Z,00000200,01000000,0002.52,0001.23,0000.33,0000.84,0000.28,0000.15,0000.06,0000.37,0000.05,18.4,25.0,00.1,00.1,0664.5,30.9
2021-09-06T23:11:00Z,00000200,01000000,0001.88,0001.11,0000.57,0001.09,0000.29,0000.16,0000.52,0000.54,0000.09,18.4,25.0,00.1,00.1,0664.5,31.0
2021-09-06T23:12:00Z,00000200,01000000,0002.05,0001.12,0000.71,0000.56,0000.32,0000.24,0000.15,-000.21,0000.73,18.4,25.0,00.1,00.0,0664.5,31.0
2021-09-06T23:13:00Z,00000200,01000000,0002.28,0001.09,0000.52,0000.37,0000.54,0000.35,0000.80,0000.84,0000.49,18.5,25.0,00.1,00.1,0664.5,31.0
2021-09-06T23:14:00Z,00000200,01000000,0002.66,0001.24,0000.76,0001.60,0000.28,-000.01,0000.20,0000.53,-000.25,18.6,25.0,00.1,00.1,0664.6,31.0
2021-09-06T23:15:00Z,00000200,01000000,0002.20,0001.21,0000.23,0000.08,0000.55,0000.08,0000.55,0000.50,0000.57,18.7,25.1,00.1,00.1,0664.5,31.0
2021-09-06T23:16:00Z,00000200,01000000,0001.96,0000.85,0000.20,0000.48,0000.31,0000.36,0000.30,0000.09,0000.20,18.8,25.1,00.1,00.1,0664.5,31.0
2021-09-06T23:17:00Z,00000200,01000000,0001.72,0001.12,0000.29,0000.94,0000.64,0000.14,0000.17,0000.32,0000.44,18.9,25.2,00.1,00.1,0664.5,31.0
2021-09-06T23:18:00Z,00000200,01000000,0001.42,0000.83,0000.54,0000.74,0000.42,0000.28,-000.02,0000.16,-000.16,18.9,25.2,00.1,00.1,0664.5,31.1
2021-09-06T23:19:00Z,00000200,01000000,0001.68,0001.01,0000.70,0000.55,0000.44,0000.13,0000.47,0000.09,0000.05,18.9,25.2,00.1,00.0,0664.5,31.1
2021-09-06T23:20:00Z,00000200,01000000,0001.69,0001.05,0000.41,-000.14,0000.34,0000.08,0000.36,0000.28,0000.56,18.8,25.2,00.1,00.0,0664.6,31.0
2021-09-06T23:21:00Z,00000200,01000000,0002.73,0000.85,0000.52,0000.31,0000.38,0000.12,0000.23,0000.30,-000.21,18.8,25.1,00.1,00.1,0664.6,31.0
2021-09-06T23:22:00Z,00000200,01000000,0002.29,0001.05,0000.63,0000.67,0000.39,0000.60,0000.01,-000.16,0000.11,18.7,25.1,00.1,00.1,0664.5,31.0
2021-09-06T23:23:00Z,00000200,01000000,0001.80,0001.17,0000.50,0001.10,0000.49,0000.29,0000.30,0000.33,0000.02,18.7,25.1,00.1,00.1,0664.5,31.0
2021-09-06T23:24:00Z,00000200,01000000,0001.54,0001.31,0000.69,0000.09,0000.29,0000.11,0000.11,0000.10,0000.45,18.6,25.0,00.1,00.1,0664.5,31.0
2021-09-06T23:25:00Z,00000200,01000000,0001.36,0000.97,0000.54,0000.38,0000.57,0000.29,0000.48,0000.56,0000.42,18.5,25.0,00.1,00.1,0664.5,31.0
2021-09-06T23:26:00Z,00000200,01000000,0001.35,0001.21,0000.80,0000.33,0000.11,0000.37,0000.36,0000.23,-000.11,18.5,25.0,00.1,00.1,0664.5,31.0
2021-09-06T23:27:00Z,00000200,01000000,0001.56,0001.04,0000.65,0000.10,0000.41,0000.09,0000.60,0000.37,0000.41,18.5,25.0,00.1,00.1,0664.5,31.0
2021-09-06T23:28:00Z,00000200,01000000,0001.37,0000.87,0000.52,0001.13,0000.36,-000.02,0000.69,0000.51,0000.25,18.6,25.0,00.1,00.1,0664.5,31.0
2021-09-06T23:29:00Z,00000200,01000000,0001.56,0001.23,0000.47,0000.49,0000.23,0000.04,-000.13,0000.03,0000.50,18.7,25.1,00.1,00.1,0664.6,31.0
2021-09-06T23:30:00Z,00000200,01000000,0002.20,0001.15,0000.47,0000.61,0000.09,-000.19,0000.23,0000.28,0000.13,18.8,25.1,00.1,00.1,0664.6,31.0
2021-09-06T23:31:00Z,00000200,01000000,0002.45,0000.95,0000.83,0000.83,0000.32,0000.59,0000.23,0000.07,-000.06,18.8,25.1,00.2,00.1,0664.6,31.0
2021-09-06T23:32:00Z,00000200,01000000,0002.09,0000.90,0000.45,0000.22,0000.13,0000.28,-000.06,0000.35,0000.19,18.8,25.1,00.2,00.1,0664.5,31.0
2021-09-06T23:33:00Z,00000200,01000000,0001.69,0000.78,0000.30,0000.94,0000.51,0000.26,0000.41,0000.22,0000.24,18.7,25.1,00.1,00.1,0664.5,31.0
2021-09-06T23:34:00Z,00000200,01000000,0002.36,0000.95,0000.25,0000.29,0000.27,-000.09,0000.03,0000.28,0000.01,18.7,25.1,00.1,00.1,0664.5,31.0
2021-09-06T23:35:00Z,00000200,01000000,0002.03,0001.15,0000.17,0000.50,0000.51,0000.31,0000.41,0000.61,0000.10,18.6,25.0,00.2,00.1,0664.5,31.0
2021-09-06T23:36:00Z,00000200,01000000,0001.31,0000.86,0000.58,0000.70,0000.17,0000.19,0000.56,0000.12,0000.75,18.5,25.0,00.2,00.1,0664.5,31.0
2021-09-06T23:37:00Z,00000200,01000000,0001.85,0000.83,0000.52,0000.09,0000.28,-000.00,0000.06,0000.08,-000.19,18.5,25.0,00.2,00.1,0664.5,31.0
2021-09-06T23:38:00Z,00000200,01000000,0001.70,0000.86,0000.48,0001.12,0000.29,0000.30,0000.38,0000.35,0000.12,18.5,24.9,00.1,00.1,0664.5,31.0
2021-09-06T23:39:00Z,00000200,01000000,0001.61,0000.82,0000.60,0000.62,0000.22,-000.06,0000.33,0000.24,0000.22,18.4,24.9,00.1,00.1,0664.5,31.0
2021-09-06T23:40:00Z,00000200,01000000,0001.62,0001.05,-000.04,0000.82,0000.22,0000.12,0000.30,-000.09,0000.20,18.4,24.9,00.2,00.1,0664.5,31.0
2021-09-06T23:41:00Z,00000200,01000000,0001.92,0000.94,0000.56,0000.83,0000.44,0000.21,0000.21,0000.54,0000.48,18.3,24.8,00.2,00.1,0664.5,31.0
2021-09-06T23:42:00Z,00000200,01000000,0001.96,0000.69,0000.33,0001.10,0000.17,0000.30,0000.28,0000.06,0000.24,18.4,24.8,00.2,00.1,0664.5,31.0
2021-09-06T23:43:00Z,00000200,01000000,0001.84,0000.72,0000.37,0000.77,0000.50,0000.15,0000.37,0000.42,0000.04,18.4,24.9,00.2,00.1,0664.5,31.0
2021-09-06T23:44:00Z,00000200,01000000,0001.46,0000.64,0000.34,-000.01,0000.24,0000.22,0000.29,0000.27,0000.35,18.5,24.9,00.2,00.1,0664.5,31.0
2021-09-06T23:45:00Z,00000200,01000000,0001.06,0000.57,0000.17,0000.69,0000.69,0000.26,0000.46,0000.36,0000.37,18.7,25.0,00.1,00.1,0664.5,31.0
2021-09-06T23:46:00Z,00000200,01000000,0001.26,0000.78,0000.48,0000.72,0000.54,0000.25,0000.17,0000.29,-000.01,18.8,25.0,00.1,00.1,0664.5,31.0
2021-09-06T23:47:00Z,00000200,01000000,0002.42,0000.51,0000.07,0000.89,0000.42,0000.01,0000.29,0000.34,0000.23,18.8,25.1,00.2,00.1,0664.5,31.1
2021-09-06T23:48:00Z,00000200,01000000,0001.16,0000.79,0000.53,0000.54,0000.43,0000.15,0000.05,0000.15,-000.10,18.9,25.1,00.1,00.1,0664.5,31.0
2021-09-06T23:49:00Z,00000200,01000000,0001.38,0000.87,0000.38,0000.88,0000.56,0000.05,-000.03,-000.15,0000.19,18.9,25.1,00.1,00.1,0664.5,31.0
2021-09-06T23:50:00Z,00000200,01000000,0001.48,0000.54,0000.38,0000.42,0000.10,0000.05,0000.01,0000.15,0000.07,18.8,25.1,00.1,00.1,0664.5,31.0
2021-09-06T23:51:00Z,00000200,01000000,0001.44,0000.89,0000.70,0000.33,0000.24,0000.11,0000.48,0000.06,-000.08,18.8,25.1,00.0,00.0,0664.5,31.0
2021-09-06T23:52:00Z,00000200,01000000,0001.89,0001.01,0000.34,0000.90,0000.30,0000.33,-000.04,-000.05,-000.04,18.7,25.0,00.1,00.0,0664.5,31.0
2021-09-06T23:53:00Z,00000200,01000000,0001.61,0000.86,0000.29,0000.24,0000.44,-000.00,0000.01,0000.32,0000.06,18.7,25.0,00.1,00.0,0664.5,31.0
2021-09-06T23:54:00Z,00000200,01000000,0001.67,0000.85,0000.26,0000.96,0000.35,0000.04,0000.11,0000.37,0000.53,18.6,25.0,00.1,00.1,0664.4,31.0
2021-09-06T23:55:00Z,00000200,01000000,0001.37,0000.79,0000.21,0000.38,0000.30,0000.37,0000.56,0000.10,-000.08,18.6,25.0,00.1,00.0,0664.4,31.0
2021-09-06T23:56:00Z,00000200,01000000,0001.09,0000.81,0000.20,-000.05,0000.37,0000.03,0000.40,0000.08,0000.40,18.5,24.9,00.0,00.0,0664.4,31.0
2021-09-06T23:57:00Z,00000200,41000000,,,,,,,0000.12,0000.14,0000.34,18.5,24.9,,00.0,0664.5,31.0
2021-09-06T23:58:00Z,00000200,61000000,,,,,,,0000.11,0000.16,0000.23,18.3,25.1,,00.0,0663.5,31.0
2021-09-06T23:59:00Z,00000200,21000000,,,,,,,0000.20,0000.28,0000.02,18.3,25.2,,00.0,0663.5,31.0
